User: anonymous   Login
Location: Dampvalley
(47.9094°N, 6.1967°E)
Time: 01:47:06
(UTC+00:00)
Language:

Meteor 1-26 Rocket - Orbit

View from above orbital plane
View from above orbital plane
View from above satellite
View from above satellite

Ground track
Ground track

The orbit data is extracted from the following two-line orbital elements,

1 09482U 76102B   21136.57818977 -.00000101  00000-0 -65787-4 0  9995
2 09482  81.2567 168.4721 0085333 102.1661 258.9084 14.07548923288661
Epoch (UTC): 16 May 2021 13:52:35
Eccentricity: 0.0085333
inclination: 81.2567°
perigee height: 806 km
apogee height: 929 km
right ascension of ascending node: 168.4721°
argument of perigee: 102.1661°
revolutions per day: 14.07548923
mean anomaly at epoch: 258.9084°
orbit number at epoch: 28866

The dashed part of the orbit path shows where the satellite is in the earth's shadow,  

DLR